星链-32118 (STARLINK-32118)

导读

STARLINK-32118是美国SpaceX公司星链(Starlink)星座中的一颗卫星,于2024年7月28日搭乘猎鹰9号火箭发射升空,属于Starlink Group 10-4任务批次的23颗第二代迷你版星链卫星之一。该卫星旨在扩充星链巨型星座规模,完成轨道爬升和测试后,将为全球用户提供低延迟、高速率的卫星互联网接入服务,助力星链全球覆盖网络的搭建。截至发射当日,SpaceX累计发射星链卫星总数已突破6800颗。

基本信息
目录编号:
60280
目录名称:
STARLINK-32118
国际标识:
2024-132C
轨道中心:
EARTH
卫星名称:
星链-32118 (STARLINK-32118)
卫星全名:
星链-32118 (STARLINK-32118)
卫星状态:
在轨 (已飞行768 天)
发射日期:
2024-07-28 UTC
国别 :
美国 (US)
星等 :
--
轨道信息
数据来源 国际轨道数据
星历时间: 2026-09-04T11:36:18+0800
7小时前
查看轨道信息
半长轴: 6840.817km
偏心率: 0.0001081
轨道倾角: 53.160°
近地点辐角 84.215°
升交点赤经 302.072°
平近点角 275.898°
近地点: 461.94km
远地点: 463.42km
周期: 93.847分钟
每日圈数: 15.344079
详细信息
卫星平台:
Starlink v2.0 mini
运营商:
太空探索技术公司
运营商所在国:
美国
制造商(研发单位):
太空探索技术公司
制造商所在国:
美国
使用方式:
暂无
卫星简介
星链(Starlink)计划是由太空探索技术公司(SpaceX)提出的一个巨型低轨卫星互联网星座项目,计划在2019年至2024年间在太空搭建由约1.2万颗卫星组成的“星链”网络,其中1584颗将部署在地球上空550千米处的近地轨道,并从2020年开始工作。该卫星仍在工作。
2D轨道图
3D轨道图
轨道高度分析图
轨道倾角分析图
轨道综合分析图
查看轨道综合分析图